Home   Weather   Niš   Past weeks

Flag for Serbia Past Weather in Niš, Serbia — Yesterday and Last 2 Weeks

Now
73 °F

Scattered clouds.


Feels Like: 76 °F
Forecast: 58 / 76 °F
Wind: 33 mph from Northwest

Location: Nis Airport

Current Time: Jul 25, 2017 at 9:08:12 am

Latest Report: Jul 25, 2017 at 8:30 am


Visibility: N/A

Pressure: 29.68 "Hg

Humidity: 65%

Dew Point: 61 °F

Location of NišLocation

Past Weather in Niš — Graph

°F

Niš Temperature Yesterday

Maximum temperature yesterday: 100 °F (at 3:00 pm)
Minimum temperature yesterday: 66 °F (at 5:00 am)
Average temperature yesterday: 84 °F

High & Low Weather Summary for the Past Weeks

 TemperatureHumidityPressure
High102 °F (Jul 11, 3:30 pm)94% (Jul 16, 9:30 pm)30.15 "Hg (Jul 16, 9:30 pm)
Low57 °F (Jul 19, 3:30 am)17% (Jul 14, 3:00 pm)29.56 "Hg (Jul 25, 3:30 am)
Average78 °F48%29.95 "Hg
* Reported Jul 10 8:00 am — Jul 25 8:00 am, Niš. Weather by CustomWeather, © 2017

Note: Actual official high and low records may vary slightly from our data, if they occured in-between our weather recording intervals... More about our weather records

Advertising

Niš Weather History for the Previous 24 Hours

Scroll right to see more
 ConditionsComfort  
Time TempWeatherWind HumidityBarometerVisibility
8:00 am
Tue, Jul 25
73 °FPassing clouds.26 mph69%29.65 "HgN/A
7:30 am75 °FPassing clouds.18 mph65%29.65 "HgN/A
7:00 am77 °FPassing clouds.7 mph54%29.59 "HgN/A
6:30 am73 °FPassing clouds.7 mph61%29.59 "HgN/A
6:00 am75 °FPassing clouds.7 mph57%29.59 "HgN/A
5:30 am75 °FPassing clouds.5 mph57%29.59 "HgN/A
5:00 am77 °FPassing clouds.2 mph51%29.59 "HgN/A
4:30 am77 °FPassing clouds.2 mph54%29.56 "HgN/A
4:00 am79 °FClear.2 mph48%29.56 "Hg10 mi
3:30 am81 °FPassing clouds.7 mph45%29.56 "HgN/A
3:00 am81 °FPassing clouds.8 mph45%29.59 "HgN/A
2:30 am81 °FPassing clouds.8 mph45%29.59 "HgN/A
2:00 am82 °FClear.2 mph42%29.59 "Hg10 mi
1:30 am84 °FPassing clouds.7 mph40%29.59 "HgN/A
1:00 am82 °FPassing clouds.6 mph45%29.59 "HgN/A
12:30 am82 °FClear.1 mph45%29.59 "Hg10 mi
12:00 am82 °FClear.7 mph48%29.59 "Hg10 mi
11:30 pm
Mon, Jul 24
84 °FClear.9 mph45%29.59 "Hg10 mi
11:00 pm84 °FClear.8 mph45%29.59 "Hg10 mi
10:30 pm84 °FPassing clouds.7 mph45%29.59 "HgN/A
10:00 pm86 °FClear.7 mph40%29.62 "Hg10 mi
9:30 pm86 °FPassing clouds.9 mph40%29.62 "HgN/A
9:00 pm88 °FPassing clouds.9 mph35%29.59 "HgN/A
8:30 pm88 °FClear.5 mph33%29.59 "Hg10 mi
8:00 pm91 °FSunny.5 mph28%29.59 "Hg10 mi
7:30 pm93 °FSunny.2 mph26%29.59 "Hg10 mi
7:00 pm95 °FPassing clouds.5 mph25%29.59 "HgN/A
6:30 pm97 °FPassing clouds.3 mph20%29.59 "HgN/A
6:00 pm99 °FPassing clouds.5 mph19%29.62 "HgN/A
5:30 pm100 °FPassing clouds.6 mph20%29.62 "HgN/A
5:00 pm99 °FPassing clouds.6 mph22%29.65 "HgN/A
4:30 pm99 °FPassing clouds.5 mph24%29.65 "HgN/A
4:00 pm99 °FPassing clouds.5 mph25%29.65 "HgN/A
3:30 pm99 °FPassing clouds.2 mph24%29.68 "HgN/A
3:00 pm100 °FPassing clouds.2 mph24%29.68 "HgN/A
2:30 pm99 °FPassing clouds.5 mph24%29.71 "HgN/A
2:00 pm97 °FPassing clouds.3 mph25%29.71 "HgN/A
1:30 pm97 °FPassing clouds.2 mph28%29.74 "HgN/A
1:00 pm93 °FPassing clouds.6 mph32%29.77 "HgN/A
12:30 pm91 °FSunny.3 mph34%29.77 "Hg10 mi
12:00 pm91 °FSunny.3 mph34%29.80 "Hg10 mi
11:30 am90 °FSunny.3 mph38%29.80 "Hg10 mi
11:00 am88 °FSunny.3 mph40%29.83 "Hg10 mi
10:30 am86 °FSunny.2 mph43%29.83 "Hg10 mi
10:00 am84 °FSunny.1 mph45%29.83 "Hg10 mi
9:30 am81 °FSunny.2 mph51%29.83 "Hg10 mi
9:00 am79 °FPassing clouds.1 mph54%29.83 "HgN/A
Weather by CustomWeather, © 2017

See weather overviewHow to use our weather pages